Overview Statistics Trail Chart Weather Telemetry Raw packets
 

This is the latest recevied weather packets stored in our database for station/object KB5DPX. If no packets are shown the sender has not sent any weather packets the latest 10 day(s).

<< 89 90 91 92 93 94 95 >>
Time Temp. Humidity Pressure Rain* Wind** Luminosity Snow
1787769780 21.11° C 81% 1009 hPa 1.02 mm - 165 W/m² -
1787769486 21.67° C 84% 1009 hPa 1.02 mm - 91 W/m² -
1787769176 21.67° C 85% 1009.1 hPa 0.76 mm - 86 W/m² -
1787768882 22.22° C 85% 1009.1 hPa 0.76 mm - 65 W/m² -
1787768592 22.78° C 83% 1009 hPa 0.25 mm - 23 W/m² -
1787768280 23.33° C 80% 1008.9 hPa 0 mm - 90 W/m² -
1787767988 23.33° C 79% 1009 hPa 0 mm - 114 W/m² -
1787767678 23.33° C 79% 1009 hPa 0 mm - 253 W/m² -
1787767384 23.89° C 79% 1009.1 hPa 0 mm - 403 W/m² -
1787767093 23.33° C 81% 1009.2 hPa 0 mm - 367 W/m² -
1787766781 23.33° C 81% 1009.3 hPa 0 mm - 316 W/m² -
1787766491 23.33° C 82% 1009.3 hPa 0 mm - 448 W/m² -
1787766179 22.78° C 82% 1009.5 hPa 0 mm - 318 W/m² -
1787765884 22.78° C 83% 1009.6 hPa 0 mm - 374 W/m² -
1787765575 22.78° C 83% 1009.6 hPa 0 mm - 327 W/m² -
1787765285 22.78° C 83% 1009.6 hPa 0 mm - 253 W/m² -
1787764975 22.78° C 82% 1009.7 hPa 0 mm - 322 W/m² -
1787764685 22.22° C 84% 1009.7 hPa 0 mm - 861 W/m² -
1787764393 22.22° C 84% 1009.7 hPa 0 mm - 401 W/m² -
1787764081 22.22° C 84% 1009.8 hPa 0 mm - 432 W/m² -
1787763789 22.22° C 85% 1009.8 hPa 0 mm - 352 W/m² -
1787763478 21.67° C 84% 1009.8 hPa 0 mm - 320 W/m² -
1787763185 21.67° C 85% 1009.8 hPa 0 mm - 380 W/m² -
1787762875 21.67° C 85% 1009.9 hPa 0 mm - 935 W/m² -
1787762586 21.11° C 86% 1009.9 hPa 0 mm - 909 W/m² -

* Rain latest hour (hover to see other rain measurements)
** Current wind speed in m/s (hover to see current wind gust speed)